Starlink 31036

operational
NORAD ID: 58533 Int'l Des: 2023-192 Owner: SPXS Country: US Constellation: starlink
LEOCIRCULAR

About Starlink 31036

Description loading...

Live Position

Loading 3D Globe...

Upcoming Passes

Altitude History

Altitude vs Time

uPlot chart will show altitude changes over time

Two-Line Element Set

1 58533U 23192C 26035.84633903 .00000860 00000-0 41166-4 0 9999
2 58533 53.1606 215.5564 0001231 81.0097 279.1043 15.30192947120951
Epoch: Feb 4, 2026 • Age: 14 hours

Current Status

Altitude 475.4 km
Velocity 7.63 km/s
Sub-Earth Point 4.77°N, 75.89°W
Launch Date Dec 8, 2023
Age 2.1 years
Type internet

Technical Details

Classification Payload
Mass 730.00 kg
Dry Mass 700.00 kg
Total Mass 730.00 kg
Length 0.30 m
Diameter 4.10 m
Span 29.00 m
Shape Box + pan
Manufacturer SPXS
Bus Type Starlink V2M
Phase Status In Orbit
Owner/State SPXS/US

Large Constellations

Loading constellations...